Wetterdaten: Montag, 29.07.2013
Datum Zeit Temperatur Luftfeuchte Luftdruck Regen Wind Richtung Richtung Taupunkt Windchill Windben
29.07.2013 00:00 17,5 C 79 % 1021,6 hPa 0,0 l/m 1,0 km/h (0 Bft) NO 45 13,8 C 17,5 C 2,7 km/h (1 Bft)
29.07.2013 00:05 17,4 C 78 % 1021,6 hPa 0,0 l/m 1,8 km/h (1 Bft) O-NO 67 13,5 C 17,4 C 2,9 km/h (1 Bft)
29.07.2013 00:10 17,4 C 79 % 1021,6 hPa 0,0 l/m 2,6 km/h (1 Bft) NO 45 13,7 C 17,4 C 2,9 km/h (1 Bft)
29.07.2013 00:15 17,3 C 79 % 1021,6 hPa 0,0 l/m 1,8 km/h (1 Bft) O 90 13,6 C 17,3 C 0,0 km/h (0 Bft)
29.07.2013 00:20 17,2 C 79 % 1021,2 hPa 0,0 l/m 1,3 km/h (1 Bft) O 90 13,5 C 17,3 C 2,6 km/h (1 Bft)
29.07.2013 00:25 17,1 C 80 % 1021,2 hPa 0,0 l/m 0,6 km/h (0 Bft) NO 45 13,6 C 17,1 C 0,0 km/h (0 Bft)
29.07.2013 00:30 17,0 C 79 % 1021,2 hPa 0,0 l/m 0,6 km/h (0 Bft) O-NO 67 13,3 C 17,1 C 0,0 km/h (0 Bft)
29.07.2013 00:35 16,9 C 80 % 1021,2 hPa 0,0 l/m 0,0 km/h (0 Bft) O 90 13,4 C 16,9 C 0,0 km/h (0 Bft)
29.07.2013 00:40 16,8 C 80 % 1020,8 hPa 0,0 l/m 0,0 km/h (0 Bft) O 90 13,3 C 16,8 C 0,0 km/h (0 Bft)
29.07.2013 00:45 16,7 C 80 % 1020,8 hPa 0,0 l/m 0,0 km/h (0 Bft) SO 135 13,2 C 16,7 C 0,0 km/h (0 Bft)
29.07.2013 00:50 16,5 C 80 % 1020,8 hPa 0,0 l/m 0,0 km/h (0 Bft) S-SW 202 13,0 C 16,5 C 0,0 km/h (0 Bft)
29.07.2013 00:55 16,5 C 81 % 1020,8 hPa 0,0 l/m 0,5 km/h (0 Bft) SO 135 13,2 C 16,4 C 0,0 km/h (0 Bft)
29.07.2013 01:00 16,3 C 81 % 1020,4 hPa 0,0 l/m 0,6 km/h (0 Bft) S-SO 157 13,0 C 16,3 C 3,1 km/h (1 Bft)
29.07.2013 01:05 16,2 C 82 % 1020,4 hPa 0,0 l/m 0,5 km/h (0 Bft) O 90 13,1 C 16,2 C 2,3 km/h (1 Bft)
29.07.2013 01:10 16,1 C 82 % 1020,4 hPa 0,0 l/m 0,3 km/h (0 Bft) O-NO 67 13,0 C 16,1 C 0,0 km/h (0 Bft)
29.07.2013 01:15 16,0 C 82 % 1020,4 hPa 0,0 l/m 0,0 km/h (0 Bft) NO 45 12,9 C 15,9 C 0,0 km/h (0 Bft)
29.07.2013 01:20 16,0 C 83 % 1020,3 hPa 0,0 l/m 0,0 km/h (0 Bft) O 90 13,1 C 15,8 C 0,0 km/h (0 Bft)
29.07.2013 01:25 15,9 C 84 % 1020,3 hPa 0,0 l/m 0,5 km/h (0 Bft) N-NO 22 13,2 C 15,6 C 3,5 km/h (1 Bft)
29.07.2013 01:30 16,0 C 83 % 1020,3 hPa 0,0 l/m 1,1 km/h (1 Bft) O-NO 67 13,1 C 15,6 C 2,4 km/h (1 Bft)
29.07.2013 01:35 16,0 C 84 % 1020,3 hPa 0,0 l/m 1,1 km/h (1 Bft) O-NO 67 13,3 C 15,4 C 2,4 km/h (1 Bft)
29.07.2013 01:40 15,8 C 84 % 1020,1 hPa 0,0 l/m 0,8 km/h (0 Bft) NO 45 13,1 C 15,4 C 0,0 km/h (0 Bft)
29.07.2013 01:45 15,4 C 84 % 1020,1 hPa 0,0 l/m 0,5 km/h (0 Bft) NO 45 12,7 C 15,2 C 0,0 km/h (0 Bft)
29.07.2013 01:50 15,3 C 84 % 1020,1 hPa 0,0 l/m 0,2 km/h (0 Bft) O 90 12,6 C 15,0 C 0,0 km/h (0 Bft)
29.07.2013 01:55 15,2 C 84 % 1020,1 hPa 0,0 l/m 0,2 km/h (0 Bft) O-NO 67 12,5 C 14,7 C 0,0 km/h (0 Bft)
29.07.2013 02:00 15,0 C 84 % 1019,9 hPa 0,0 l/m 0,0 km/h (0 Bft) O-NO 67 12,3 C 14,6 C 0,0 km/h (0 Bft)
29.07.2013 02:05 15,1 C 85 % 1019,9 hPa 0,0 l/m 0,3 km/h (0 Bft) NO 45 12,6 C 14,5 C 0,0 km/h (0 Bft)
29.07.2013 02:10 15,0 C 85 % 1019,9 hPa 0,0 l/m 0,3 km/h (0 Bft) NO 45 12,5 C 14,5 C 0,0 km/h (0 Bft)
29.07.2013 02:15 15,0 C 85 % 1019,9 hPa 0,0 l/m 0,6 km/h (0 Bft) NO 45 12,5 C 14,5 C 0,0 km/h (0 Bft)
29.07.2013 02:20 14,9 C 86 % 1019,9 hPa 0,0 l/m 0,6 km/h (0 Bft) N 360 12,6 C 14,4 C 0,0 km/h (0 Bft)
29.07.2013 02:25 14,6 C 86 % 1019,9 hPa 0,0 l/m 0,2 km/h (0 Bft) O-NO 67 12,3 C 14,2 C 0,0 km/h (0 Bft)
29.07.2013 02:30 14,6 C 86 % 1019,9 hPa 0,0 l/m 0,0 km/h (0 Bft) NO 45 12,3 C 14,1 C 0,0 km/h (0 Bft)
29.07.2013 02:35 14,6 C 86 % 1019,9 hPa 0,0 l/m 0,2 km/h (0 Bft) O-NO 67 12,3 C 14,0 C 0,0 km/h (0 Bft)
29.07.2013 02:40 14,4 C 86 % 1019,6 hPa 0,0 l/m 0,2 km/h (0 Bft) O-NO 67 12,1 C 13,9 C 0,0 km/h (0 Bft)
29.07.2013 02:45 14,2 C 86 % 1019,6 hPa 0,0 l/m 0,0 km/h (0 Bft) S 180 11,9 C 13,9 C 0,0 km/h (0 Bft)
29.07.2013 02:50 14,1 C 86 % 1019,6 hPa 0,0 l/m 0,0 km/h (0 Bft) NO 45 11,8 C 13,8 C 0,0 km/h (0 Bft)
29.07.2013 02:55 14,1 C 87 % 1019,6 hPa 0,0 l/m 0,0 km/h (0 Bft) S 180 12,0 C 13,7 C 0,0 km/h (0 Bft)
29.07.2013 03:00 14,1 C 87 % 1020,2 hPa 0,0 l/m 0,0 km/h (0 Bft) O-SO 112 12,0 C 13,8 C 0,0 km/h (0 Bft)
29.07.2013 03:05 14,5 C 88 % 1020,2 hPa 0,0 l/m 0,0 km/h (0 Bft) O-NO 67 12,5 C 13,9 C 0,0 km/h (0 Bft)
29.07.2013 03:10 14,9 C 88 % 1020,2 hPa 0,0 l/m 0,8 km/h (0 Bft) NO 45 12,9 C 14,2 C 3,1 km/h (1 Bft)
29.07.2013 03:15 15,4 C 88 % 1020,2 hPa 0,0 l/m 2,1 km/h (1 Bft) O 90 13,4 C 14,5 C 2,1 km/h (1 Bft)
29.07.2013 03:20 15,5 C 87 % 1020,0 hPa 0,0 l/m 2,3 km/h (1 Bft) O 90 13,3 C 14,8 C 2,3 km/h (1 Bft)
29.07.2013 03:25 15,6 C 87 % 1020,0 hPa 0,0 l/m 1,3 km/h (1 Bft) O-NO 67 13,4 C 15,0 C 1,8 km/h (1 Bft)
29.07.2013 03:30 15,8 C 87 % 1020,0 hPa 0,0 l/m 0,8 km/h (0 Bft) O-SO 112 13,6 C 15,2 C 0,0 km/h (0 Bft)
29.07.2013 03:35 15,6 C 87 % 1020,0 hPa 0,0 l/m 0,5 km/h (0 Bft) S 180 13,4 C 15,3 C 0,0 km/h (0 Bft)
29.07.2013 03:40 15,5 C 86 % 1020,4 hPa 0,0 l/m 0,3 km/h (0 Bft) S 180 13,2 C 15,4 C 0,0 km/h (0 Bft)
29.07.2013 03:45 15,6 C 87 % 1020,4 hPa 0,0 l/m 0,0 km/h (0 Bft) O-SO 112 13,4 C 15,4 C 0,0 km/h (0 Bft)
29.07.2013 03:50 15,6 C 86 % 1020,4 hPa 0,0 l/m 0,2 km/h (0 Bft) S-SW 202 13,3 C 15,4 C 0,0 km/h (0 Bft)
29.07.2013 03:55 15,7 C 86 % 1020,4 hPa 0,0 l/m 0,2 km/h (0 Bft) O 90 13,4 C 15,5 C 0,0 km/h (0 Bft)
29.07.2013 04:00 15,9 C 86 % 1020,3 hPa 0,0 l/m 0,0 km/h (0 Bft) NO 45 13,6 C 15,6 C 0,0 km/h (0 Bft)
29.07.2013 04:05 16,1 C 86 % 1020,3 hPa 0,0 l/m 0,0 km/h (0 Bft) O 90 13,8 C 15,7 C 0,0 km/h (0 Bft)
29.07.2013 04:10 16,3 C 85 % 1020,3 hPa 0,0 l/m 0,5 km/h (0 Bft) O-NO 67 13,8 C 15,8 C 1,8 km/h (1 Bft)
29.07.2013 04:15 16,4 C 84 % 1020,3 hPa 0,0 l/m 1,4 km/h (1 Bft) O 90 13,7 C 16,1 C 4,0 km/h (1 Bft)
29.07.2013 04:20 16,5 C 84 % 1020,8 hPa 0,0 l/m 2,3 km/h (1 Bft) NO 45 13,8 C 16,2 C 3,4 km/h (1 Bft)
29.07.2013 04:25 16,4 C 83 % 1020,8 hPa 0,0 l/m 2,4 km/h (1 Bft) O-SO 112 13,5 C 16,3 C 2,7 km/h (1 Bft)
29.07.2013 04:30 16,5 C 83 % 1020,8 hPa 0,0 l/m 1,9 km/h (1 Bft) SO 135 13,6 C 16,3 C 2,1 km/h (1 Bft)
29.07.2013 04:35 16,5 C 82 % 1020,8 hPa 0,0 l/m 1,6 km/h (1 Bft) SO 135 13,4 C 16,4 C 4,2 km/h (1 Bft)
29.07.2013 04:40 16,5 C 82 % 1021,0 hPa 0,0 l/m 1,1 km/h (1 Bft) O 90 13,4 C 16,4 C 0,0 km/h (0 Bft)
29.07.2013 04:45 16,4 C 82 % 1021,0 hPa 0,0 l/m 0,0 km/h (0 Bft) O 90 13,3 C 16,4 C 0,0 km/h (0 Bft)
29.07.2013 04:50 16,5 C 82 % 1021,0 hPa 0,0 l/m 0,0 km/h (0 Bft) S 180 13,4 C 16,4 C 0,0 km/h (0 Bft)
29.07.2013 04:55 16,5 C 81 % 1021,0 hPa 0,0 l/m 0,0 km/h (0 Bft) O 90 13,2 C 16,4 C 0,0 km/h (0 Bft)
29.07.2013 05:00 16,5 C 81 % 1021,0 hPa 0,0 l/m 0,2 km/h (0 Bft) O 90 13,2 C 16,4 C 1,6 km/h (1 Bft)
29.07.2013 05:05 16,6 C 81 % 1021,0 hPa 0,0 l/m 0,8 km/h (0 Bft) NO 45 13,3 C 16,4 C 0,0 km/h (0 Bft)
29.07.2013 05:10 16,5 C 81 % 1021,0 hPa 0,0 l/m 0,6 km/h (0 Bft) NO 45 13,2 C 16,4 C 0,0 km/h (0 Bft)
29.07.2013 05:15 16,4 C 81 % 1021,0 hPa 0,0 l/m 0,2 km/h (0 Bft) N 360 13,1 C 16,4 C 0,0 km/h (0 Bft)
29.07.2013 05:20 16,4 C 81 % 1021,1 hPa 0,0 l/m 0,2 km/h (0 Bft) O-SO 112 13,1 C 16,4 C 0,0 km/h (0 Bft)
29.07.2013 05:25 16,3 C 81 % 1021,1 hPa 0,0 l/m 0,2 km/h (0 Bft) NO 45 13,0 C 16,2 C 0,0 km/h (0 Bft)
29.07.2013 05:30 16,2 C 81 % 1021,1 hPa 0,0 l/m 0,2 km/h (0 Bft) N 360 12,9 C 16,2 C 0,0 km/h (0 Bft)
29.07.2013 05:35 15,9 C 82 % 1021,1 hPa 0,0 l/m 0,2 km/h (0 Bft) N-NO 22 12,8 C 15,9 C 0,0 km/h (0 Bft)
29.07.2013 05:40 15,6 C 82 % 1021,1 hPa 0,0 l/m 0,2 km/h (0 Bft) O 90 12,5 C 15,7 C 0,0 km/h (0 Bft)
29.07.2013 05:45 15,5 C 82 % 1021,1 hPa 0,0 l/m 0,2 km/h (0 Bft) O-NO 67 12,4 C 15,4 C 0,0 km/h (0 Bft)
29.07.2013 05:50 15,7 C 83 % 1021,1 hPa 0,0 l/m 0,3 km/h (0 Bft) N 360 12,8 C 15,4 C 0,0 km/h (0 Bft)
29.07.2013 05:55 15,9 C 83 % 1021,1 hPa 0,0 l/m 0,5 km/h (0 Bft) W-SW 247 13,0 C 15,7 C 3,5 km/h (1 Bft)
29.07.2013 06:00 16,0 C 83 % 1021,1 hPa 0,0 l/m 1,0 km/h (0 Bft) W-NW 292 13,1 C 15,8 C 1,8 km/h (1 Bft)
29.07.2013 06:05 15,9 C 84 % 1021,1 hPa 0,0 l/m 1,6 km/h (1 Bft) W-SW 247 13,2 C 15,8 C 0,0 km/h (0 Bft)
29.07.2013 06:10 16,0 C 83 % 1021,1 hPa 0,0 l/m 1,0 km/h (0 Bft) O-SO 112 13,1 C 15,8 C 1,9 km/h (1 Bft)
29.07.2013 06:15 16,0 C 83 % 1021,1 hPa 0,0 l/m 1,0 km/h (0 Bft) NO 45 13,1 C 15,9 C 2,4 km/h (1 Bft)
29.07.2013 06:20 16,1 C 83 % 1021,2 hPa 0,0 l/m 1,8 km/h (1 Bft) NO 45 13,2 C 16,0 C 2,4 km/h (1 Bft)
29.07.2013 06:25 16,3 C 83 % 1021,2 hPa 0,0 l/m 2,3 km/h (1 Bft) O-NO 67 13,4 C 16,1 C 4,8 km/h (1 Bft)
29.07.2013 06:30 16,3 C 83 % 1021,2 hPa 0,0 l/m 1,8 km/h (1 Bft) NO 45 13,4 C 16,2 C 2,3 km/h (1 Bft)
29.07.2013 06:35 16,6 C 83 % 1021,2 hPa 0,0 l/m 0,8 km/h (0 Bft) O-SO 112 13,7 C 16,4 C 8,4 km/h (2 Bft)
29.07.2013 06:40 16,8 C 82 % 1021,3 hPa 0,0 l/m 1,1 km/h (1 Bft) S 180 13,7 C 16,5 C 2,9 km/h (1 Bft)
29.07.2013 06:45 16,9 C 81 % 1021,3 hPa 0,0 l/m 2,1 km/h (1 Bft) O 90 13,6 C 16,9 C 4,2 km/h (1 Bft)
29.07.2013 06:50 17,0 C 80 % 1021,3 hPa 0,0 l/m 1,8 km/h (1 Bft) O-SO 112 13,5 C 17,0 C 1,8 km/h (1 Bft)
29.07.2013 06:55 17,0 C 80 % 1021,3 hPa 0,0 l/m 1,0 km/h (0 Bft) S-SO 157 13,5 C 17,1 C 0,0 km/h (0 Bft)
29.07.2013 07:00 17,0 C 79 % 1021,6 hPa 0,0 l/m 0,5 km/h (0 Bft) O-SO 112 13,3 C 17,2 C 0,0 km/h (0 Bft)
29.07.2013 07:05 16,9 C 80 % 1021,6 hPa 0,0 l/m 0,5 km/h (0 Bft) NO 45 13,4 C 17,2 C 2,7 km/h (1 Bft)
29.07.2013 07:10 16,9 C 80 % 1021,6 hPa 0,0 l/m 0,5 km/h (0 Bft) O-NO 67 13,4 C 17,3 C 0,0 km/h (0 Bft)
29.07.2013 07:15 17,0 C 80 % 1021,6 hPa 0,0 l/m 0,3 km/h (0 Bft) O 90 13,5 C 17,2 C 2,3 km/h (1 Bft)
29.07.2013 07:20 17,0 C 80 % 1021,2 hPa 0,0 l/m 0,2 km/h (0 Bft) S 180 13,5 C 17,2 C 0,0 km/h (0 Bft)
29.07.2013 07:25 17,0 C 80 % 1021,2 hPa 0,0 l/m 0,2 km/h (0 Bft) S 180 13,5 C 17,3 C 0,0 km/h (0 Bft)
29.07.2013 07:30 17,0 C 80 % 1021,2 hPa 0,0 l/m 0,3 km/h (0 Bft) N-NO 22 13,5 C 17,3 C 0,0 km/h (0 Bft)
29.07.2013 07:35 17,1 C 79 % 1021,2 hPa 0,0 l/m 0,3 km/h (0 Bft) N-NO 22 13,4 C 17,3 C 0,0 km/h (0 Bft)
29.07.2013 07:40 17,1 C 79 % 1021,3 hPa 0,0 l/m 0,2 km/h (0 Bft) S-SO 157 13,4 C 17,3 C 0,0 km/h (0 Bft)
29.07.2013 07:45 17,0 C 79 % 1021,3 hPa 0,0 l/m 0,8 km/h (0 Bft) S-SO 157 13,3 C 17,2 C 1,6 km/h (1 Bft)
29.07.2013 07:50 17,0 C 80 % 1021,3 hPa 0,0 l/m 1,1 km/h (1 Bft) NO 45 13,5 C 17,2 C 2,1 km/h (1 Bft)
29.07.2013 07:55 17,1 C 80 % 1021,3 hPa 0,0 l/m 0,8 km/h (0 Bft) O-SO 112 13,6 C 17,2 C 0,0 km/h (0 Bft)
29.07.2013 08:00 17,2 C 80 % 1021,2 hPa 0,0 l/m 0,3 km/h (0 Bft) S-SO 157 13,7 C 17,3 C 0,0 km/h (0 Bft)
29.07.2013 08:05 17,3 C 80 % 1021,2 hPa 0,0 l/m 0,2 km/h (0 Bft) O 90 13,8 C 17,5 C 0,0 km/h (0 Bft)
29.07.2013 08:10 17,3 C 80 % 1021,2 hPa 0,0 l/m 0,2 km/h (0 Bft) NO 45 13,8 C 17,6 C 0,0 km/h (0 Bft)
29.07.2013 08:15 17,5 C 80 % 1021,2 hPa 0,0 l/m 0,0 km/h (0 Bft) O 90 14,0 C 17,8 C 0,0 km/h (0 Bft)
29.07.2013 08:20 17,7 C 80 % 1021,2 hPa 0,0 l/m 0,0 km/h (0 Bft) W-NW 292 14,2 C 18,0 C 0,0 km/h (0 Bft)
29.07.2013 08:25 18,1 C 79 % 1021,2 hPa 0,0 l/m 0,2 km/h (0 Bft) S-SW 202 14,4 C 18,4 C 2,6 km/h (1 Bft)
29.07.2013 08:30 18,3 C 79 % 1021,2 hPa 0,0 l/m 0,3 km/h (0 Bft) W-SW 247 14,6 C 18,6 C 0,0 km/h (0 Bft)
29.07.2013 08:35 18,7 C 78 % 1021,2 hPa 0,0 l/m 0,3 km/h (0 Bft) SW 225 14,8 C 19,1 C 0,0 km/h (0 Bft)
29.07.2013 08:40 18,7 C 77 % 1021,3 hPa 0,0 l/m 0,2 km/h (0 Bft) NW 315 14,6 C 19,3 C 1,8 km/h (1 Bft)
29.07.2013 08:45 18,9 C 77 % 1021,3 hPa 0,0 l/m 1,0 km/h (0 Bft) N-NW 337 14,8 C 19,5 C 0,0 km/h (0 Bft)
29.07.2013 08:50 19,1 C 77 % 1021,3 hPa 0,0 l/m 1,3 km/h (1 Bft) N-NW 337 15,0 C 19,8 C 1,6 km/h (1 Bft)
29.07.2013 08:55 19,7 C 76 % 1021,3 hPa 0,0 l/m 1,0 km/h (0 Bft) N-NW 337 15,3 C 20,3 C 2,3 km/h (1 Bft)
29.07.2013 09:00 19,7 C 74 % 1020,8 hPa 0,0 l/m 0,6 km/h (0 Bft) N-NO 22 14,9 C 20,6 C 1,8 km/h (1 Bft)
29.07.2013 09:05 19,8 C 73 % 1020,8 hPa 0,0 l/m 0,3 km/h (0 Bft) N-NW 337 14,8 C 21,0 C 1,8 km/h (1 Bft)
29.07.2013 09:10 19,9 C 74 % 1020,8 hPa 0,0 l/m 1,1 km/h (1 Bft) N-NW 337 15,1 C 21,1 C 3,1 km/h (1 Bft)
29.07.2013 09:15 20,2 C 72 % 1020,8 hPa 0,0 l/m 2,3 km/h (1 Bft) N 360 15,0 C 21,2 C 5,3 km/h (1 Bft)
29.07.2013 09:20 20,3 C 70 % 1020,2 hPa 0,0 l/m 2,7 km/h (1 Bft) W-NW 292 14,6 C 21,3 C 4,7 km/h (1 Bft)
29.07.2013 09:25 20,1 C 68 % 1020,2 hPa 0,0 l/m 3,2 km/h (1 Bft) N-NW 337 14,0 C 21,4 C 4,0 km/h (1 Bft)
29.07.2013 09:30 20,0 C 68 % 1020,2 hPa 0,0 l/m 3,2 km/h (1 Bft) N-NW 337 13,9 C 21,2 C 4,3 km/h (1 Bft)
29.07.2013 09:35 19,7 C 69 % 1020,2 hPa 0,0 l/m 3,4 km/h (1 Bft) NW 315 13,8 C 21,0 C 3,7 km/h (1 Bft)
29.07.2013 09:40 19,7 C 70 % 1020,3 hPa 0,0 l/m 3,2 km/h (1 Bft) N-NW 337 14,1 C 20,8 C 5,3 km/h (1 Bft)
29.07.2013 09:45 20,0 C 70 % 1020,3 hPa 0,0 l/m 2,9 km/h (1 Bft) N-NW 337 14,4 C 20,8 C 4,5 km/h (1 Bft)
29.07.2013 09:50 20,3 C 69 % 1020,3 hPa 0,0 l/m 1,8 km/h (1 Bft) NW 315 14,4 C 20,9 C 2,1 km/h (1 Bft)
29.07.2013 09:55 19,8 C 69 % 1020,3 hPa 0,0 l/m 1,8 km/h (1 Bft) N 360 13,9 C 20,9 C 4,8 km/h (1 Bft)
29.07.2013 10:00 19,6 C 69 % 1020,2 hPa 0,0 l/m 1,9 km/h (1 Bft) N 360 13,8 C 20,6 C 1,8 km/h (1 Bft)
29.07.2013 10:05 19,8 C 69 % 1020,2 hPa 0,0 l/m 1,9 km/h (1 Bft) O 90 13,9 C 20,5 C 3,1 km/h (1 Bft)
29.07.2013 10:10 19,8 C 69 % 1020,2 hPa 0,0 l/m 1,4 km/h (1 Bft) N-NW 337 13,9 C 20,6 C 1,9 km/h (1 Bft)
29.07.2013 10:15 19,6 C 72 % 1020,2 hPa 0,0 l/m 1,1 km/h (1 Bft) N-NW 337 14,4 C 20,6 C 2,6 km/h (1 Bft)
29.07.2013 10:20 19,5 C 72 % 1020,2 hPa 0,0 l/m 1,3 km/h (1 Bft) NW 315 14,3 C 20,4 C 0,0 km/h (0 Bft)
29.07.2013 10:25 19,2 C 72 % 1020,2 hPa 0,0 l/m 1,1 km/h (1 Bft) W 270 14,0 C 20,0 C 3,1 km/h (1 Bft)
29.07.2013 10:30 19,0 C 73 % 1020,2 hPa 0,0 l/m 1,1 km/h (1 Bft) N 360 14,0 C 19,7 C 3,1 km/h (1 Bft)
29.07.2013 10:35 18,6 C 74 % 1020,2 hPa 0,0 l/m 2,7 km/h (1 Bft) O-NO 67 13,9 C 19,3 C 3,7 km/h (1 Bft)
29.07.2013 10:40 18,5 C 74 % 1020,6 hPa 0,0 l/m 2,7 km/h (1 Bft) O 90 13,8 C 18,9 C 0,0 km/h (0 Bft)
29.07.2013 10:45 18,4 C 75 % 1020,6 hPa 0,0 l/m 0,6 km/h (0 Bft) NO 45 13,9 C 18,7 C 1,6 km/h (1 Bft)
29.07.2013 10:50 18,2 C 77 % 1020,6 hPa 0,0 l/m 0,5 km/h (0 Bft) N-NO 22 14,1 C 18,7 C 3,1 km/h (1 Bft)
29.07.2013 10:55 18,3 C 76 % 1020,6 hPa 0,0 l/m 0,5 km/h (0 Bft) N-NO 22 14,0 C 18,5 C 0,0 km/h (0 Bft)
29.07.2013 11:00 18,3 C 76 % 1020,8 hPa 0,0 l/m 0,6 km/h (0 Bft) N-NO 22 14,0 C 18,5 C 0,0 km/h (0 Bft)
29.07.2013 11:05 18,1 C 78 % 1020,8 hPa 0,0 l/m 1,3 km/h (1 Bft) NW 315 14,2 C 18,4 C 1,6 km/h (1 Bft)
29.07.2013 11:10 18,2 C 77 % 1020,8 hPa 0,0 l/m 1,3 km/h (1 Bft) O 90 14,1 C 18,4 C 1,8 km/h (1 Bft)
29.07.2013 11:15 18,6 C 76 % 1020,8 hPa 0,0 l/m 0,5 km/h (0 Bft) NW 315 14,3 C 18,5 C 2,3 km/h (1 Bft)
29.07.2013 11:20 18,8 C 76 % 1020,1 hPa 0,0 l/m 1,0 km/h (0 Bft) NO 45 14,5 C 18,8 C 0,0 km/h (0 Bft)
29.07.2013 11:25 18,8 C 75 % 1020,1 hPa 0,0 l/m 2,1 km/h (1 Bft) N 360 14,3 C 19,2 C 4,2 km/h (1 Bft)
29.07.2013 11:30 19,0 C 74 % 1020,1 hPa 0,0 l/m 1,8 km/h (1 Bft) NW 315 14,3 C 19,3 C 0,0 km/h (0 Bft)
29.07.2013 11:35 19,4 C 73 % 1020,1 hPa 0,0 l/m 1,0 km/h (0 Bft) N-NW 337 14,4 C 20,0 C 0,0 km/h (0 Bft)
29.07.2013 11:40 19,4 C 70 % 1020,1 hPa 0,0 l/m 1,6 km/h (1 Bft) NO 45 13,8 C 20,2 C 2,7 km/h (1 Bft)
29.07.2013 11:45 19,3 C 71 % 1020,1 hPa 0,0 l/m 2,1 km/h (1 Bft) N 360 13,9 C 20,4 C 0,0 km/h (0 Bft)
29.07.2013 11:50 19,3 C 71 % 1020,1 hPa 0,0 l/m 1,3 km/h (1 Bft) W 270 13,9 C 20,2 C 0,0 km/h (0 Bft)
29.07.2013 11:55 19,2 C 71 % 1020,1 hPa 0,0 l/m 1,1 km/h (1 Bft) N-NO 22 13,8 C 20,1 C 0,0 km/h (0 Bft)
29.07.2013 12:00 18,9 C 71 % 1020,1 hPa 0,0 l/m 1,1 km/h (1 Bft) N 360 13,5 C 20,0 C 2,4 km/h (1 Bft)
29.07.2013 12:05 18,6 C 72 % 1020,1 hPa 0,0 l/m 1,3 km/h (1 Bft) O-SO 112 13,4 C 19,5 C 4,2 km/h (1 Bft)
29.07.2013 12:10 18,8 C 72 % 1020,1 hPa 0,0 l/m 1,8 km/h (1 Bft) W-NW 292 13,6 C 19,4 C 0,0 km/h (0 Bft)
29.07.2013 12:15 18,5 C 74 % 1020,1 hPa 0,0 l/m 2,1 km/h (1 Bft) N 360 13,8 C 18,5 C 2,4 km/h (1 Bft)
29.07.2013 12:20 18,3 C 76 % 1019,5 hPa 0,0 l/m 1,6 km/h (1 Bft) NO 45 14,0 C 18,1 C 0,0 km/h (0 Bft)
29.07.2013 12:25 18,6 C 77 % 1019,5 hPa 0,0 l/m 1,1 km/h (1 Bft) N 360 14,5 C 17,9 C 2,9 km/h (1 Bft)
29.07.2013 12:30 19,1 C 77 % 1019,5 hPa 0,0 l/m 1,3 km/h (1 Bft) N-NW 337 15,0 C 18,5 C 1,9 km/h (1 Bft)
29.07.2013 12:35 20,7 C 78 % 1019,5 hPa 0,0 l/m 2,3 km/h (1 Bft) N 360 16,7 C 20,0 C 6,8 km/h (2 Bft)
29.07.2013 12:40 22,1 C 74 % 1019,4 hPa 0,0 l/m 2,6 km/h (1 Bft) W-NW 292 17,2 C 21,8 C 3,2 km/h (1 Bft)
29.07.2013 12:45 21,3 C 75 % 1019,4 hPa 0,0 l/m 3,7 km/h (1 Bft) W-NW 292 16,7 C 23,1 C 5,8 km/h (2 Bft)
29.07.2013 12:50 20,6 C 70 % 1019,4 hPa 0,0 l/m 4,2 km/h (1 Bft) N 360 14,9 C 23,0 C 9,2 km/h (2 Bft)
29.07.2013 12:55 20,4 C 73 % 1019,4 hPa 0,0 l/m 5,3 km/h (1 Bft) N-NO 22 15,4 C 22,6 C 14,5 km/h (3 Bft)
29.07.2013 13:00 20,5 C 76 % 1019,5 hPa 0,0 l/m 5,1 km/h (1 Bft) N-NW 337 16,1 C 22,4 C 5,1 km/h (1 Bft)
29.07.2013 13:05 20,7 C 77 % 1019,5 hPa 0,0 l/m 3,1 km/h (1 Bft) W-NW 292 16,5 C 22,2 C 4,2 km/h (1 Bft)
29.07.2013 13:10 20,3 C 73 % 1019,5 hPa 0,0 l/m 3,4 km/h (1 Bft) N-NW 337 15,3 C 22,1 C 8,0 km/h (2 Bft)
29.07.2013 13:15 20,0 C 74 % 1019,5 hPa 0,0 l/m 4,0 km/h (1 Bft) W-NW 292 15,2 C 21,6 C 6,3 km/h (2 Bft)
29.07.2013 13:20 20,1 C 76 % 1018,9 hPa 0,0 l/m 4,3 km/h (1 Bft) NO 45 15,7 C 21,4 C 3,1 km/h (1 Bft)
29.07.2013 13:25 20,2 C 77 % 1018,9 hPa 0,0 l/m 3,1 km/h (1 Bft) W 270 16,0 C 21,4 C 3,4 km/h (1 Bft)
29.07.2013 13:30 20,1 C 77 % 1018,9 hPa 0,0 l/m 1,9 km/h (1 Bft) NW 315 15,9 C 21,4 C 1,6 km/h (1 Bft)
29.07.2013 13:35 19,5 C 78 % 1018,9 hPa 0,0 l/m 1,8 km/h (1 Bft) S 180 15,6 C 20,9 C 6,1 km/h (2 Bft)
29.07.2013 13:40 19,0 C 79 % 1019,7 hPa 0,0 l/m 3,2 km/h (1 Bft) S-SO 157 15,3 C 20,4 C 7,4 km/h (2 Bft)
29.07.2013 13:45 18,1 C 82 % 1019,7 hPa 0,0 l/m 5,3 km/h (1 Bft) N-NO 22 15,0 C 19,3 C 6,1 km/h (2 Bft)
29.07.2013 13:50 18,3 C 85 % 1019,7 hPa 0,7 l/m 4,3 km/h (1 Bft) NO 45 15,7 C 18,7 C 0,0 km/h (0 Bft)
29.07.2013 13:55 19,1 C 87 % 1019,7 hPa 0,0 l/m 2,3 km/h (1 Bft) O-SO 112 16,9 C 19,4 C 0,0 km/h (0 Bft)
29.07.2013 14:00 20,0 C 88 % 1019,2 hPa 0,0 l/m 1,0 km/h (0 Bft) N-NW 337 17,9 C 20,6 C 2,7 km/h (1 Bft)
29.07.2013 14:05 19,3 C 87 % 1019,2 hPa 0,0 l/m 1,9 km/h (1 Bft) N-NW 337 17,1 C 21,6 C 4,5 km/h (1 Bft)
29.07.2013 14:10 18,8 C 86 % 1019,2 hPa 0,0 l/m 2,6 km/h (1 Bft) N-NO 22 16,4 C 21,4 C 1,6 km/h (1 Bft)
29.07.2013 14:15 18,6 C 87 % 1019,2 hPa 0,0 l/m 2,3 km/h (1 Bft) O-NO 67 16,4 C 21,2 C 2,3 km/h (1 Bft)
29.07.2013 14:20 18,9 C 87 % 1018,8 hPa 0,0 l/m 1,6 km/h (1 Bft) O-SO 112 16,7 C 20,9 C 1,6 km/h (1 Bft)
29.07.2013 14:25 18,9 C 87 % 1018,8 hPa 0,0 l/m 1,6 km/h (1 Bft) O 90 16,7 C 20,1 C 0,0 km/h (0 Bft)
29.07.2013 14:30 19,0 C 87 % 1018,8 hPa 0,0 l/m 1,3 km/h (1 Bft) O-SO 112 16,8 C 19,9 C 0,0 km/h (0 Bft)
29.07.2013 14:35 19,1 C 88 % 1018,8 hPa 0,0 l/m 0,5 km/h (0 Bft) O-NO 67 17,1 C 20,0 C 0,0 km/h (0 Bft)
29.07.2013 14:40 18,8 C 88 % 1018,7 hPa 0,0 l/m 1,3 km/h (1 Bft) W-NW 292 16,8 C 20,0 C 3,4 km/h (1 Bft)
29.07.2013 14:45 18,7 C 88 % 1018,7 hPa 0,0 l/m 2,3 km/h (1 Bft) W 270 16,7 C 19,7 C 5,3 km/h (1 Bft)
29.07.2013 14:50 18,4 C 88 % 1018,7 hPa 0,0 l/m 2,6 km/h (1 Bft) W-NW 292 16,4 C 19,4 C 2,1 km/h (1 Bft)
29.07.2013 14:55 18,1 C 88 % 1018,7 hPa 0,0 l/m 1,8 km/h (1 Bft) S 180 16,1 C 19,0 C 0,0 km/h (0 Bft)
29.07.2013 15:00 18,0 C 89 % 1018,5 hPa 0,0 l/m 1,0 km/h (0 Bft) NO 45 16,2 C 18,9 C 0,0 km/h (0 Bft)
29.07.2013 15:05 17,9 C 89 % 1018,5 hPa 0,0 l/m 1,1 km/h (1 Bft) NO 45 16,1 C 18,7 C 3,1 km/h (1 Bft)
29.07.2013 15:10 18,0 C 89 % 1018,5 hPa 0,0 l/m 1,4 km/h (1 Bft) S 180 16,2 C 18,5 C 0,0 km/h (0 Bft)
29.07.2013 15:15 17,8 C 89 % 1018,5 hPa 0,0 l/m 1,6 km/h (1 Bft) W-NW 292 16,0 C 18,2 C 0,0 km/h (0 Bft)
29.07.2013 15:20 17,8 C 89 % 1017,6 hPa 0,0 l/m 2,4 km/h (1 Bft) N-NW 337 16,0 C 17,9 C 3,1 km/h (1 Bft)
29.07.2013 15:25 17,6 C 89 % 1017,6 hPa 0,0 l/m 4,8 km/h (1 Bft) W-NW 292 15,8 C 17,7 C 9,2 km/h (2 Bft)
29.07.2013 15:30 17,4 C 88 % 1017,6 hPa 0,0 l/m 5,5 km/h (1 Bft) W-NW 292 15,4 C 17,6 C 6,3 km/h (2 Bft)
29.07.2013 15:35 17,2 C 89 % 1017,6 hPa 0,0 l/m 5,0 km/h (1 Bft) O 90 15,4 C 17,3 C 5,0 km/h (1 Bft)
29.07.2013 15:40 17,0 C 89 % 1018,4 hPa 0,0 l/m 3,9 km/h (1 Bft) NO 45 15,2 C 17,1 C 4,5 km/h (1 Bft)
29.07.2013 15:45 17,0 C 89 % 1018,4 hPa 0,0 l/m 2,3 km/h (1 Bft) S-SW 202 15,2 C 16,9 C 2,4 km/h (1 Bft)
29.07.2013 15:50 17,0 C 90 % 1018,4 hPa 0,0 l/m 1,1 km/h (1 Bft) O 90 15,3 C 16,9 C 0,0 km/h (0 Bft)
29.07.2013 15:55 17,0 C 90 % 1018,4 hPa 0,0 l/m 1,3 km/h (1 Bft) W-SW 247 15,3 C 16,9 C 14,8 km/h (3 Bft)
29.07.2013 16:00 16,8 C 90 % 1018,7 hPa 0,0 l/m 3,9 km/h (1 Bft) W-SW 247 15,1 C 16,9 C 4,8 km/h (1 Bft)
29.07.2013 16:05 16,6 C 90 % 1018,7 hPa 0,0 l/m 6,0 km/h (2 Bft) W 270 15,0 C 16,7 C 8,9 km/h (2 Bft)
29.07.2013 16:10 16,6 C 90 % 1018,7 hPa 0,0 l/m 4,8 km/h (1 Bft) S-SW 202 15,0 C 16,6 C 5,5 km/h (1 Bft)
29.07.2013 16:15 16,5 C 90 % 1018,7 hPa 0,0 l/m 4,2 km/h (1 Bft) SO 135 14,9 C 16,4 C 2,3 km/h (1 Bft)
29.07.2013 16:20 16,6 C 90 % 1018,4 hPa 0,0 l/m 2,6 km/h (1 Bft) NW 315 15,0 C 16,4 C 2,6 km/h (1 Bft)
29.07.2013 16:25 16,9 C 90 % 1018,4 hPa 0,7 l/m 1,4 km/h (1 Bft) O-NO 67 15,2 C 16,8 C 0,0 km/h (0 Bft)
29.07.2013 16:30 17,0 C 90 % 1018,4 hPa 0,0 l/m 1,3 km/h (1 Bft) S 180 15,3 C 17,0 C 3,5 km/h (1 Bft)
29.07.2013 16:35 16,7 C 90 % 1018,4 hPa 0,0 l/m 1,8 km/h (1 Bft) S 180 15,0 C 16,8 C 3,5 km/h (1 Bft)
29.07.2013 16:40 16,6 C 90 % 1018,9 hPa 0,0 l/m 2,1 km/h (1 Bft) S-SW 202 15,0 C 16,7 C 2,9 km/h (1 Bft)
29.07.2013 16:45 16,5 C 91 % 1018,9 hPa 0,0 l/m 1,8 km/h (1 Bft) S-SO 157 15,0 C 16,5 C 1,9 km/h (1 Bft)
29.07.2013 16:50 16,4 C 91 % 1018,9 hPa 0,0 l/m 2,1 km/h (1 Bft) S 180 14,9 C 16,4 C 3,9 km/h (1 Bft)
29.07.2013 16:55 16,4 C 91 % 1018,9 hPa 0,0 l/m 1,9 km/h (1 Bft) S 180 14,9 C 16,4 C 7,1 km/h (2 Bft)
29.07.2013 17:00 16,5 C 91 % 1019,1 hPa 0,0 l/m 3,1 km/h (1 Bft) O-SO 112 15,0 C 16,4 C 2,9 km/h (1 Bft)
29.07.2013 17:05 16,6 C 91 % 1019,1 hPa 0,0 l/m 4,2 km/h (1 Bft) S 180 15,1 C 16,7 C 4,3 km/h (1 Bft)
29.07.2013 17:10 16,5 C 91 % 1019,1 hPa 0,0 l/m 4,3 km/h (1 Bft) S 180 15,0 C 16,8 C 7,2 km/h (2 Bft)
29.07.2013 17:15 16,2 C 91 % 1019,1 hPa 0,7 l/m 4,0 km/h (1 Bft) SO 135 14,7 C 16,4 C 6,4 km/h (2 Bft)
29.07.2013 17:20 15,8 C 92 % 1019,5 hPa 0,7 l/m 2,9 km/h (1 Bft) S-SW 202 14,5 C 16,1 C 0,0 km/h (0 Bft)
29.07.2013 17:25 15,9 C 92 % 1019,5 hPa 0,0 l/m 2,4 km/h (1 Bft) S 180 14,6 C 15,9 C 4,8 km/h (1 Bft)
29.07.2013 17:30 15,8 C 93 % 1019,5 hPa 0,7 l/m 2,4 km/h (1 Bft) S 180 14,7 C 15,8 C 3,9 km/h (1 Bft)
29.07.2013 17:35 15,8 C 93 % 1019,5 hPa 0,7 l/m 2,9 km/h (1 Bft) NO 45 14,7 C 15,8 C 15,0 km/h (3 Bft)
29.07.2013 17:40 15,4 C 93 % 1020,4 hPa 0,7 l/m 6,1 km/h (2 Bft) S 180 14,3 C 15,6 C 12,7 km/h (3 Bft)
29.07.2013 17:45 14,9 C 93 % 1020,4 hPa 2,7 l/m 13,8 km/h (3 Bft) S-SO 157 13,8 C 10,9 C 41,8 km/h (6 Bft)
29.07.2013 17:50 14,2 C 92 % 1020,4 hPa 0,7 l/m 16,6 km/h (3 Bft) S 180 12,9 C 9,0 C 21,4 km/h (4 Bft)
29.07.2013 17:55 13,8 C 92 % 1020,4 hPa 1,4 l/m 17,9 km/h (3 Bft) W-SW 247 12,5 C 7,4 C 19,8 km/h (3 Bft)
29.07.2013 18:00 13,8 C 92 % 1021,2 hPa 0,7 l/m 15,9 km/h (3 Bft) SO 135 12,5 C 7,7 C 14,2 km/h (3 Bft)
29.07.2013 18:05 13,7 C 92 % 1021,2 hPa 0,7 l/m 15,4 km/h (3 Bft) S 180 12,4 C 7,8 C 16,7 km/h (3 Bft)
29.07.2013 18:10 13,7 C 92 % 1021,2 hPa 0,7 l/m 14,3 km/h (3 Bft) SO 135 12,4 C 8,3 C 16,7 km/h (3 Bft)
29.07.2013 18:15 13,7 C 92 % 1021,2 hPa 0,0 l/m 12,1 km/h (2 Bft) S-SW 202 12,4 C 9,6 C 16,9 km/h (3 Bft)
29.07.2013 18:20 13,7 C 92 % 1021,3 hPa 0,7 l/m 12,1 km/h (2 Bft) S-SW 202 12,4 C 9,6 C 15,1 km/h (3 Bft)
29.07.2013 18:25 13,5 C 92 % 1021,3 hPa 0,0 l/m 13,7 km/h (3 Bft) S 180 12,2 C 8,7 C 22,4 km/h (4 Bft)
29.07.2013 18:30 13,5 C 92 % 1021,3 hPa 0,0 l/m 14,6 km/h (3 Bft) S 180 12,2 C 8,1 C 22,2 km/h (4 Bft)
29.07.2013 18:35 13,6 C 92 % 1021,3 hPa 0,0 l/m 14,6 km/h (3 Bft) S 180 12,3 C 8,1 C 17,4 km/h (3 Bft)
29.07.2013 18:40 13,6 C 92 % 1021,1 hPa 0,0 l/m 13,5 km/h (3 Bft) SO 135 12,3 C 8,5 C 9,3 km/h (2 Bft)
29.07.2013 18:45 13,5 C 92 % 1021,1 hPa 0,7 l/m 11,4 km/h (2 Bft) S 180 12,2 C 9,8 C 13,7 km/h (3 Bft)
29.07.2013 18:50 13,5 C 93 % 1021,1 hPa 0,7 l/m 10,0 km/h (2 Bft) S 180 12,4 C 10,7 C 8,2 km/h (2 Bft)
29.07.2013 18:55 13,5 C 93 % 1021,1 hPa 0,7 l/m 11,1 km/h (2 Bft) S-SW 202 12,4 C 9,8 C 13,7 km/h (3 Bft)
29.07.2013 19:00 13,5 C 93 % 1021,6 hPa 0,0 l/m 10,9 km/h (2 Bft) S 180 12,4 C 10,0 C 11,7 km/h (2 Bft)
29.07.2013 19:05 13,5 C 93 % 1021,6 hPa 0,7 l/m 9,8 km/h (2 Bft) S-SW 202 12,4 C 10,7 C 12,2 km/h (2 Bft)
29.07.2013 19:10 13,5 C 93 % 1021,6 hPa 1,4 l/m 9,5 km/h (2 Bft) O-SO 112 12,4 C 10,8 C 11,9 km/h (2 Bft)
29.07.2013 19:15 13,3 C 93 % 1021,6 hPa 0,7 l/m 10,6 km/h (2 Bft) S 180 12,2 C 10,2 C 19,8 km/h (3 Bft)
29.07.2013 19:20 13,3 C 93 % 1021,9 hPa 0,7 l/m 13,2 km/h (3 Bft) S-SW 202 12,2 C 8,4 C 36,2 km/h (5 Bft)
29.07.2013 19:25 13,2 C 93 % 1021,9 hPa 0,0 l/m 16,6 km/h (3 Bft) S 180 12,1 C 6,6 C 20,9 km/h (4 Bft)
29.07.2013 19:30 13,1 C 93 % 1021,9 hPa 0,7 l/m 17,4 km/h (3 Bft) S 180 12,0 C 6,3 C 21,1 km/h (4 Bft)
29.07.2013 19:35 13,0 C 93 % 1021,9 hPa 0,0 l/m 16,1 km/h (3 Bft) SO 135 11,9 C 6,7 C 14,8 km/h (3 Bft)
29.07.2013 19:40 12,9 C 94 % 1022,7 hPa 0,7 l/m 15,3 km/h (3 Bft) S-SW 202 12,0 C 7,0 C 18,8 km/h (3 Bft)
29.07.2013 19:45 12,8 C 94 % 1022,7 hPa 0,0 l/m 13,5 km/h (3 Bft) S 180 11,9 C 7,7 C 14,2 km/h (3 Bft)
29.07.2013 19:50 12,8 C 94 % 1022,7 hPa 0,7 l/m 12,4 km/h (3 Bft) S-SW 202 11,9 C 8,2 C 12,9 km/h (3 Bft)
29.07.2013 19:55 12,8 C 94 % 1022,7 hPa 0,7 l/m 10,5 km/h (2 Bft) SO 135 11,9 C 9,3 C 8,7 km/h (2 Bft)
29.07.2013 20:00 12,8 C 94 % 1022,9 hPa 0,0 l/m 9,3 km/h (2 Bft) SO 135 11,9 C 10,3 C 12,4 km/h (3 Bft)
29.07.2013 20:05 12,8 C 94 % 1022,9 hPa 0,0 l/m 8,2 km/h (2 Bft) O-SO 112 11,9 C 11,0 C 10,8 km/h (2 Bft)
29.07.2013 20:10 12,8 C 94 % 1022,9 hPa 0,0 l/m 7,6 km/h (2 Bft) S 180 11,9 C 11,5 C 7,6 km/h (2 Bft)
29.07.2013 20:15 12,9 C 94 % 1022,9 hPa 0,7 l/m 6,0 km/h (2 Bft) S-SO 157 12,0 C 12,7 C 4,8 km/h (1 Bft)
29.07.2013 20:20 12,9 C 94 % 1023,0 hPa 0,0 l/m 5,8 km/h (2 Bft) NO 45 12,0 C 12,8 C 9,7 km/h (2 Bft)
29.07.2013 20:25 12,9 C 95 % 1023,0 hPa 0,0 l/m 6,0 km/h (2 Bft) S 180 12,1 C 12,8 C 7,6 km/h (2 Bft)
29.07.2013 20:30 12,9 C 95 % 1023,0 hPa 0,0 l/m 6,1 km/h (2 Bft) SO 135 12,1 C 12,7 C 4,0 km/h (1 Bft)
29.07.2013 20:35 12,9 C 95 % 1023,0 hPa 0,0 l/m 6,6 km/h (2 Bft) S-SW 202 12,1 C 12,6 C 5,8 km/h (2 Bft)
29.07.2013 20:40 12,8 C 95 % 1023,5 hPa 0,0 l/m 6,9 km/h (2 Bft) NO 45 12,0 C 12,3 C 9,5 km/h (2 Bft)
29.07.2013 20:45 12,8 C 95 % 1023,5 hPa 0,0 l/m 6,9 km/h (2 Bft) SO 135 12,0 C 12,1 C 5,5 km/h (1 Bft)
29.07.2013 20:50 12,7 C 95 % 1023,5 hPa 0,0 l/m 7,1 km/h (2 Bft) S 180 11,9 C 11,9 C 8,5 km/h (2 Bft)
29.07.2013 20:55 12,7 C 95 % 1023,5 hPa 0,0 l/m 6,3 km/h (2 Bft) SO 135 11,9 C 12,5 C 8,0 km/h (2 Bft)
29.07.2013 21:00 12,7 C 95 % 1023,4 hPa 0,0 l/m 6,8 km/h (2 Bft) S 180 11,9 C 12,0 C 7,6 km/h (2 Bft)
29.07.2013 21:05 12,6 C 95 % 1023,4 hPa 0,0 l/m 6,3 km/h (2 Bft) O-SO 112 11,8 C 12,4 C 6,6 km/h (2 Bft)
29.07.2013 21:10 12,4 C 95 % 1023,4 hPa 0,0 l/m 6,9 km/h (2 Bft) O-SO 112 11,6 C 12,0 C 6,1 km/h (2 Bft)
29.07.2013 21:15 12,3 C 95 % 1023,4 hPa 0,0 l/m 8,0 km/h (2 Bft) SO 135 11,5 C 10,8 C 13,0 km/h (3 Bft)
29.07.2013 21:20 12,2 C 95 % 1023,3 hPa 0,0 l/m 8,0 km/h (2 Bft) S 180 11,4 C 10,8 C 4,2 km/h (1 Bft)
29.07.2013 21:25 12,1 C 95 % 1023,3 hPa 0,0 l/m 6,6 km/h (2 Bft) S 180 11,3 C 12,0 C 5,8 km/h (2 Bft)
29.07.2013 21:30 12,1 C 95 % 1023,3 hPa 0,0 l/m 5,5 km/h (1 Bft) S 180 11,3 C 12,3 C 5,0 km/h (1 Bft)
29.07.2013 21:35 12,1 C 95 % 1023,3 hPa 0,0 l/m 5,1 km/h (1 Bft) SO 135 11,3 C 12,4 C 7,2 km/h (2 Bft)
29.07.2013 21:40 12,1 C 95 % 1023,4 hPa 0,0 l/m 3,7 km/h (1 Bft) O-SO 112 11,3 C 12,4 C 0,0 km/h (0 Bft)
29.07.2013 21:45 12,1 C 95 % 1023,4 hPa 0,0 l/m 2,6 km/h (1 Bft) SO 135 11,3 C 12,4 C 2,3 km/h (1 Bft)
29.07.2013 21:50 12,1 C 95 % 1023,4 hPa 0,0 l/m 1,8 km/h (1 Bft) N 360 11,3 C 12,3 C 0,0 km/h (0 Bft)
29.07.2013 21:55 12,1 C 95 % 1023,4 hPa 0,0 l/m 1,3 km/h (1 Bft) S 180 11,3 C 12,2 C 1,8 km/h (1 Bft)
29.07.2013 22:00 12,1 C 95 % 1023,2 hPa 0,0 l/m 1,0 km/h (0 Bft) SO 135 11,3 C 12,2 C 2,1 km/h (1 Bft)
29.07.2013 22:05 11,9 C 95 % 1023,2 hPa 0,0 l/m 1,1 km/h (1 Bft) O 90 11,1 C 12,1 C 4,8 km/h (1 Bft)
29.07.2013 22:10 11,7 C 95 % 1023,2 hPa 0,0 l/m 1,4 km/h (1 Bft) S 180 10,9 C 11,9 C 3,4 km/h (1 Bft)
29.07.2013 22:15 11,7 C 95 % 1023,2 hPa 0,0 l/m 1,8 km/h (1 Bft) O-NO 67 10,9 C 11,8 C 1,8 km/h (1 Bft)
29.07.2013 22:20 11,8 C 95 % 1023,4 hPa 0,0 l/m 1,6 km/h (1 Bft) SO 135 11,0 C 11,9 C 2,9 km/h (1 Bft)
29.07.2013 22:25 11,8 C 95 % 1023,4 hPa 0,0 l/m 1,4 km/h (1 Bft) O-SO 112 11,0 C 12,0 C 0,0 km/h (0 Bft)
29.07.2013 22:30 11,9 C 95 % 1023,4 hPa 0,0 l/m 1,6 km/h (1 Bft) NO 45 11,1 C 12,1 C 4,2 km/h (1 Bft)
29.07.2013 22:35 11,9 C 95 % 1023,4 hPa 0,0 l/m 1,9 km/h (1 Bft) O-SO 112 11,1 C 12,2 C 3,2 km/h (1 Bft)
29.07.2013 22:40 11,9 C 95 % 1023,8 hPa 0,0 l/m 1,8 km/h (1 Bft) S 180 11,1 C 12,2 C 2,7 km/h (1 Bft)
29.07.2013 22:45 11,9 C 95 % 1023,8 hPa 0,0 l/m 1,4 km/h (1 Bft) O-NO 67 11,1 C 12,2 C 2,7 km/h (1 Bft)
29.07.2013 22:50 11,9 C 95 % 1023,8 hPa 0,0 l/m 2,1 km/h (1 Bft) S-SO 157 11,1 C 12,2 C 7,1 km/h (2 Bft)
29.07.2013 22:55 12,0 C 95 % 1023,8 hPa 0,0 l/m 3,7 km/h (1 Bft) SO 135 11,2 C 12,4 C 2,9 km/h (1 Bft)
29.07.2013 23:00 12,0 C 95 % 1024,1 hPa 0,0 l/m 4,7 km/h (1 Bft) S 180 11,2 C 12,4 C 6,9 km/h (2 Bft)
29.07.2013 23:05 12,0 C 95 % 1024,1 hPa 0,0 l/m 5,5 km/h (1 Bft) S-SO 157 11,2 C 12,4 C 10,1 km/h (2 Bft)
29.07.2013 23:10 12,0 C 95 % 1024,1 hPa 0,0 l/m 5,8 km/h (2 Bft) S-SO 157 11,2 C 12,4 C 6,1 km/h (2 Bft)
29.07.2013 23:15 12,0 C 95 % 1024,1 hPa 0,0 l/m 5,8 km/h (2 Bft) O-SO 112 11,2 C 12,5 C 7,6 km/h (2 Bft)
29.07.2013 23:20 12,0 C 95 % 1024,4 hPa 0,0 l/m 6,1 km/h (2 Bft) SO 135 11,2 C 12,4 C 6,9 km/h (2 Bft)
29.07.2013 23:25 12,0 C 95 % 1024,4 hPa 0,0 l/m 6,9 km/h (2 Bft) S-SO 157 11,2 C 12,1 C 11,3 km/h (2 Bft)
29.07.2013 23:30 12,0 C 95 % 1024,4 hPa 0,0 l/m 7,1 km/h (2 Bft) S 180 11,2 C 11,8 C 8,4 km/h (2 Bft)
29.07.2013 23:35 12,0 C 95 % 1024,4 hPa 0,0 l/m 7,6 km/h (2 Bft) S-SW 202 11,2 C 11,6 C 6,4 km/h (2 Bft)
29.07.2013 23:40 12,0 C 95 % 1024,4 hPa 0,0 l/m 7,6 km/h (2 Bft) S 180 11,2 C 11,6 C 4,8 km/h (1 Bft)
29.07.2013 23:45 12,0 C 95 % 1024,4 hPa 0,0 l/m 6,4 km/h (2 Bft) S 180 11,2 C 12,7 C 11,4 km/h (2 Bft)
29.07.2013 23:50 12,0 C 95 % 1024,4 hPa 0,0 l/m 6,0 km/h (2 Bft) S 180 11,2 C 12,8 C 6,0 km/h (2 Bft)
29.07.2013 23:55 12,0 C 95 % 1024,4 hPa 0,0 l/m 5,5 km/h (1 Bft) O-SO 112 11,2 C 12,8 C 4,7 km/h (1 Bft)
_ Min-Zeit 22:15 09:30 15:35 - 08:20 - - 22:15 19:30 22:25
Minimum _ 11,7 C 68 % 1017,6 hPa - 0,0 km/h (0 Bft) - - 10,9 C 6,3 C 0,0 km/h (0 Bft)
_ Max-Zeit 12:40 23:55 23:55 17:45 17:55 - - 14:00 12:45 17:45
Maximum _ 22,1 C 95 % 1024,4 hPa 2,7 l/m 17,9 km/h
W-SW (3 Bft)
- - 17,9 C 23,1 C 41,8 km/h
S-SO (6 Bft)
Durchschnitt _ 16,2 C 85 % 1020,8 hPa #21,3 l/m 3,2 km/h (1 Bft) S - 13,5 C 15,9 C 4,3 km/h (1 Bft)